DECAYED

CZ-6A DEB, 61341 (Decayed)

Orbit data source: Space-Track

CZ-6A DEB, 61341 was space debris in LEO originally from a launch on Tue, 06 Aug 2024 UTC launched from the Taiyaun Space Center, China (TSC). Debris objects in space refer to the collection of defunct objects orbiting the Earth. Examples of debris include non-operational satellites, rocket bodies, and fragments generated from explosions, collisions, or faulty payload assembly.

Not visible in the next 10 days
Identifier
61341, 2024-140VE
Orbit
Decayed
Country
Flag of CNCN / PRC
Related business
Manufacturer
SAST
Mission
Decayed spacecraft
Bus & Motor
Unknown
Mass
Unknown
Launch date (UTC)
2024-08-06 (2 years ago)
Launch vehicle
Unknown
Launch site
Taiyaun Space Center, China (TSC)
Object type
Payload
Rocket body
Debris
Shape & HBR
Unknown shape, 1.1 m
Radar Cross Section
Medium (>0.1 m² and <1 m²)

Expand to show TLE details & history
Last TLE update: 1 year ago

TLE from 1 year ago
0 CZ-6A DEB
1 61341U 24140VE  25152.39480484  .05856501  58240-1  22278-1 0  9993
2 61341  88.9036 311.3255 0016103 305.8259  54.1529 15.92993992 40440
Epoch: 2025-06-01T09:28Z
TLE epoch observation values (Epoch: 2025-06-01T09:28:31.138Z)
Latitude
-0°
Longitude
-80.9257°
Altitude
290.924 km
Speed
7.737 km/s
True Right ascension
20h 45m 18s
True Declination
0° 00' 00"
Sunlit
Object was in full shadow at epoch
Visualization orbit readout
Latitude
Unknown
Longitude
Unknown
Altitude
Unknown
Speed
Unknown
Apparent Right ascension
Unknown
Apparent Declination
Unknown
Sunlit
N/A
Visualization observer readout
Local Sidereal Time
07:19:24
Azimuth
Unknown
Elevation
Unknown
Doppler factor
Unknown
Orbital elements
Apogee altitude
301.357 km
Perigee altitude
279.88 km
Semi-major axis
6,668.755 km
Eccentricity
0.00161
Inclination
88.9036°
RAAN
311.3255°
Arg. of periapsis
305.8259°
True anomaly
54.30265°
Mean anomaly
54.1529°
Eccentric anomaly
54.22776°
Mean motion
3.98544 °/min
Orbital period
90.33 mins
BSTAR
0.022278
Loading maneuver chart data...
Computing Atmospheric mass density...
Loading historical data...
Loading historical data...
Loading historical data...
Loading historical data...
Loading historical data...
Loading historical data...
Loading historical data...

Documentation

Showing up to 5 results
|